This is the latest recevied weather packets stored in our database for station/object N6GPM. If no packets are shown the sender has not sent any weather packets the latest 10 day(s).
| Time | Temp. | Humidity | Pressure | Rain* | Wind** | Luminosity | Snow |
|---|---|---|---|---|---|---|---|
| 1788560884 | 29.44° C | 34% | 1016.5 hPa | 0 mm | - | 703 W/m² | - |
| 1788560578 | 29.44° C | 33% | 1016.4 hPa | 0 mm | - | 721 W/m² | - |
| 1788560273 | 28.89° C | 34% | 1016.5 hPa | 0 mm | - | 736 W/m² | - |
| 1788559968 | 28.89° C | 34% | 1016.4 hPa | 0 mm | - | 754 W/m² | - |
| 1788559663 | 28.89° C | 34% | 1016.4 hPa | 0 mm | - | 768 W/m² | - |
| 1788559362 | 29.44° C | 34% | 1016.4 hPa | 0 mm | - | 785 W/m² | - |
| 1788559057 | 29.44° C | 33% | 1016.4 hPa | 0 mm | - | 794 W/m² | - |
| 1788558747 | 30° C | 31% | 1016.7 hPa | 0 mm | - | 811 W/m² | - |
| 1788558442 | 29.44° C | 31% | 1016.5 hPa | 0 mm | - | 824 W/m² | - |
| 1788558139 | 28.89° C | 32% | 1016.8 hPa | 0 mm | - | 841 W/m² | - |
| 1788557836 | 28.33° C | 33% | 1016.7 hPa | 0 mm | - | 851 W/m² | - |
| 1788557532 | 28.33° C | 34% | 1016.8 hPa | 0 mm | - | 861 W/m² | - |
| 1788557227 | 28.33° C | 34% | 1016.8 hPa | 0 mm | - | 869 W/m² | - |
| 1788556922 | 28.89° C | 34% | 1016.8 hPa | 0 mm | - | 880 W/m² | - |
| 1788556628 | 28.89° C | 34% | 1016.8 hPa | 0 mm | - | 894 W/m² | - |
| 1788556317 | 28.33° C | 35% | 1017 hPa | 0 mm | - | 902 W/m² | - |
| 1788556017 | 28.89° C | 36% | 1016.8 hPa | 0 mm | - | 909 W/m² | - |
| 1788555707 | 28.33° C | 36% | 1016.9 hPa | 0 mm | - | 923 W/m² | - |
| 1788555403 | 28.33° C | 36% | 1016.9 hPa | 0 mm | - | 932 W/m² | - |
| 1788555099 | 27.78° C | 36% | 1016.9 hPa | 0 mm | - | 940 W/m² | - |
| 1788554795 | 27.78° C | 38% | 1017.2 hPa | 0 mm | - | 946 W/m² | - |
| 1788554491 | 28.33° C | 38% | 1017 hPa | 0 mm | - | 953 W/m² | - |
| 1788554186 | 28.33° C | 38% | 1017 hPa | 0 mm | - | 955 W/m² | - |
| 1788553883 | 27.78° C | 38% | 1017 hPa | 0 mm | - | 962 W/m² | - |
| 1788553578 | 27.22° C | 39% | 1017.2 hPa | 0 mm | - | 968 W/m² | - |
* Rain latest hour (hover to see other rain measurements)
** Current wind speed in m/s (hover to see current wind gust speed)